Time,TemperatureF,DewpointF,PressureIn,WindDirection,WindDirectionDegrees,WindSpeedMPH,WindSpeedGustMPH,Humidity,HourlyPrecipIn,Conditions,Clouds,dailyrainin,SoftwareType,DateUTC
2013-01-01 00:02:00,0.9,-3.6,30.18,North,0,0.0,0.0,81,0.00,CLR,OVC,0.00,WeatherDisplay:10.37,2013-01-01 06:02:00,
2013-01-01 00:07:00,0.3,-4.1,30.18,North,0,0.0,0.0,81,0.00,CLR,OVC,0.00,WeatherDisplay:10.37,2013-01-01 06:07:00,
2013-01-01 00:12:00,0.3,-4.1,30.18,North,0,0.0,0.0,81,0.00,CLR,OVC,0.00,WeatherDisplay:10.37,2013-01-01 06:12:00,
2013-01-01 00:17:00,0.3,-4.1,30.18,North,0,0.0,0.0,81,0.00,CLR,OVC,0.00,WeatherDisplay:10.37,2013-01-01 06:17:00,
2013-01-01 00:22:00,0.7,-3.8,30.18,North,0,0.0,0.0,81,0.00,CLR,OVC,0.00,WeatherDisplay:10.37,2013-01-01 06:22:00,
2013-01-01 00:27:00,0.9,-3.6,30.18,North,0,0.0,0.0,81,0.00,CLR,OVC,0.00,WeatherDisplay:10.37,2013-01-01 06:27:00,
2013-01-01 00:32:00,1.2,-3.3,30.18,North,0,0.0,0.0,81,0.00,CLR,OVC,0.00,WeatherDisplay:10.37,2013-01-01 06:32:00,
2013-01-01 00:37:00,1.4,-3.1,30.18,North,0,0.0,0.0,81,0.00,CLR,OVC,0.00,WeatherDisplay:10.37,2013-01-01 06:37:00,
2013-01-01 00:42:00,1.6,-2.9,30.17,North,0,0.0,0.0,81,0.00,CLR,OVC,0.00,WeatherDisplay:10.37,2013-01-01 06:42:00,
2013-01-01 00:47:00,1.6,-2.9,30.18,North,0,0.0,0.0,81,0.00,CLR,OVC,0.00,WeatherDisplay:10.37,2013-01-01 06:47:00,
2013-01-01 00:52:00,1.2,-3.3,30.18,North,0,0.0,0.0,81,0.00,CLR,OVC,0.00,WeatherDisplay:10.37,2013-01-01 06:52:00,
2013-01-01 00:57:00,0.9,-3.9,30.18,North,0,0.0,0.0,80,0.00,CLR,OVC,0.00,WeatherDisplay:10.37,2013-01-01 06:57:00,
2013-01-01 01:02:00,0.3,-4.4,30.18,North,0,0.0,0.0,80,0.00,CLR,OVC,0.00,WeatherDisplay:10.37,2013-01-01 07:02:00,
2013-01-01 01:07:00,0.1,-4.6,30.18,North,0,0.0,0.0,80,0.00,CLR,OVC,0.00,WeatherDisplay:10.37,2013-01-01 07:07:00,
2013-01-01 01:12:00,0.0,-4.5,30.18,North,0,0.0,0.0,81,0.00,CLR,OVC,0.00,WeatherDisplay:10.37,2013-01-01 07:12:00,
2013-01-01 01:18:00,-0.2,-4.7,30.18,North,0,0.0,0.0,81,0.00,CLR,OVC,0.00,WeatherDisplay:10.37,2013-01-01 07:18:00,
2013-01-01 01:22:00,-0.4,-4.8,30.17,North,0,0.0,0.0,81,0.00,CLR,OVC,0.00,WeatherDisplay:10.37,2013-01-01 07:22:00,
2013-01-01 01:28:00,-0.6,-5.0,30.18,North,0,0.0,0.0,81,0.00,CLR,OVC,0.00,WeatherDisplay:10.37,2013-01-01 07:28:00,
2013-01-01 01:33:00,-0.6,-5.0,30.18,North,0,0.0,0.0,81,0.00,CLR,OVC,0.00,WeatherDisplay:10.37,2013-01-01 07:33:00,
2013-01-01 01:38:00,-0.8,-4.9,30.18,North,0,0.0,0.0,82,0.00,CLR,OVC,0.00,WeatherDisplay:10.37,2013-01-01 07:38:00,
2013-01-01 01:43:00,-0.9,-5.4,30.18,North,0,0.0,0.0,81,0.00,CLR,OVC,0.00,WeatherDisplay:10.37,2013-01-01 07:43:00,
2013-01-01 01:48:00,-0.9,-5.1,30.17,North,0,0.0,0.0,82,0.00,CLR,OVC,0.00,WeatherDisplay:10.37,2013-01-01 07:48:00,
2013-01-01 01:53:00,-1.1,-5.5,30.17,North,0,0.0,0.0,81,0.00,CLR,OVC,0.00,WeatherDisplay:10.37,2013-01-01 07:53:00,
2013-01-01 01:58:00,-1.1,-5.3,30.17,North,0,0.0,0.0,82,0.00,CLR,OVC,0.00,WeatherDisplay:10.37,2013-01-01 07:58:00,
2013-01-01 02:03:00,-1.1,-5.3,30.17,North,0,0.0,0.0,82,0.00,CLR,OVC,0.00,WeatherDisplay:10.37,2013-01-01 08:03:00,
2013-01-01 02:08:00,-1.1,-5.3,30.17,North,0,0.0,0.0,82,0.00,CLR,OVC,0.00,WeatherDisplay:10.37,2013-01-01 08:08:00,
2013-01-01 02:13:00,-0.9,-5.1,30.18,North,0,0.0,0.0,82,0.00,CLR,OVC,0.00,WeatherDisplay:10.37,2013-01-01 08:13:00,
2013-01-01 02:18:00,-1.1,-5.3,30.18,North,0,0.0,0.0,82,0.00,CLR,OVC,0.00,WeatherDisplay:10.37,2013-01-01 08:18:00,
2013-01-01 02:23:00,-1.1,-5.3,30.18,North,0,0.0,0.0,82,0.00,CLR,OVC,0.00,WeatherDisplay:10.37,2013-01-01 08:23:00,
2013-01-01 02:28:00,-1.1,-5.3,30.18,North,0,0.0,0.0,82,0.00,CLR,OVC,0.00,WeatherDisplay:10.37,2013-01-01 08:28:00,
2013-01-01 02:33:00,-1.1,-5.3,30.18,North,0,0.0,0.0,82,0.00,CLR,OVC,0.00,WeatherDisplay:10.37,2013-01-01 08:33:00,
2013-01-01 02:38:00,-1.1,-5.3,30.19,North,0,0.0,0.0,82,0.00,CLR,OVC,0.00,WeatherDisplay:10.37,2013-01-01 08:38:00,
2013-01-01 02:43:00,-0.9,-5.1,30.19,North,0,0.0,0.0,82,0.00,CLR,OVC,0.00,WeatherDisplay:10.37,2013-01-01 08:43:00,
2013-01-01 02:48:00,-0.9,-5.1,30.19,North,0,0.0,0.0,82,0.00,CLR,OVC,0.00,WeatherDisplay:10.37,2013-01-01 08:48:00,
2013-01-01 02:53:00,-0.9,-5.1,30.19,North,0,0.0,0.0,82,0.00,CLR,OVC,0.00,WeatherDisplay:10.37,2013-01-01 08:53:00,
2013-01-01 02:58:00,-1.1,-5.3,30.19,North,0,0.0,0.0,82,0.00,CLR,OVC,0.00,WeatherDisplay:10.37,2013-01-01 08:58:00,
2013-01-01 03:03:00,-1.5,-5.6,30.20,North,0,0.0,0.0,82,0.00,CLR,OVC,0.00,WeatherDisplay:10.37,2013-01-01 09:03:00,
2013-01-01 03:08:00,-1.5,-5.6,30.20,North,0,0.0,0.0,82,0.00,CLR,OVC,0.00,WeatherDisplay:10.37,2013-01-01 09:08:00,
2013-01-01 03:13:00,-1.5,-5.6,30.20,North,0,0.0,0.0,82,0.00,CLR,OVC,0.00,WeatherDisplay:10.37,2013-01-01 09:13:00,
2013-01-01 03:18:00,-1.5,-5.6,30.20,North,0,0.0,0.0,82,0.00,CLR,OVC,0.00,WeatherDisplay:10.37,2013-01-01 09:18:00,
2013-01-01 03:23:00,-1.5,-5.6,30.20,North,0,0.0,0.0,82,0.00,CLR,OVC,0.00,WeatherDisplay:10.37,2013-01-01 09:23:00,
2013-01-01 03:28:00,-1.5,-5.6,30.21,North,0,0.0,0.0,82,0.00,CLR,OVC,0.00,WeatherDisplay:10.37,2013-01-01 09:28:00,
2013-01-01 03:33:00,-1.5,-5.6,30.21,North,0,0.0,0.0,82,0.00,CLR,OVC,0.00,WeatherDisplay:10.37,2013-01-01 09:33:00,
2013-01-01 03:38:00,-1.7,-5.8,30.21,North,0,0.0,0.0,82,0.00,CLR,OVC,0.00,WeatherDisplay:10.37,2013-01-01 09:38:00,
2013-01-01 03:43:00,-1.7,-5.8,30.21,North,0,0.0,0.0,82,0.00,CLR,OVC,0.00,WeatherDisplay:10.37,2013-01-01 09:43:00,
2013-01-01 03:48:00,-1.7,-5.8,30.21,North,0,0.0,0.0,82,0.00,CLR,OVC,0.00,WeatherDisplay:10.37,2013-01-01 09:48:00,
2013-01-01 03:53:00,-1.8,-6.0,30.21,North,0,0.0,0.0,82,0.00,CLR,OVC,0.00,WeatherDisplay:10.37,2013-01-01 09:53:00,
2013-01-01 03:58:00,-1.8,-6.0,30.20,North,0,0.0,0.0,82,0.00,CLR,OVC,0.00,WeatherDisplay:10.37,2013-01-01 09:58:00,
2013-01-01 04:03:00,-1.8,-6.0,30.20,North,0,0.0,0.0,82,0.00,CLR,OVC,0.00,WeatherDisplay:10.37,2013-01-01 10:03:00,
2013-01-01 04:08:00,-1.8,-6.2,30.20,North,0,0.0,0.0,81,0.00,CLR,OVC,0.00,WeatherDisplay:10.37,2013-01-01 10:08:00,
2013-01-01 04:13:00,-2.0,-6.4,30.21,North,0,0.0,0.0,81,0.00,CLR,OVC,0.00,WeatherDisplay:10.37,2013-01-01 10:13:00,
2013-01-01 04:18:00,-2.0,-6.4,30.20,North,0,0.0,0.0,81,0.00,CLR,OVC,0.00,WeatherDisplay:10.37,2013-01-01 10:18:00,
2013-01-01 04:23:00,-2.0,-6.4,30.21,North,0,0.0,0.0,81,0.00,CLR,OVC,0.00,WeatherDisplay:10.37,2013-01-01 10:23:00,
2013-01-01 04:28:00,-2.0,-6.4,30.21,North,0,0.0,0.0,81,0.00,CLR,OVC,0.00,WeatherDisplay:10.37,2013-01-01 10:28:00,
2013-01-01 04:33:00,-1.8,-6.2,30.20,North,0,0.0,0.0,81,0.00,CLR,OVC,0.00,WeatherDisplay:10.37,2013-01-01 10:33:00,
2013-01-01 04:38:00,-1.8,-6.2,30.20,North,0,0.0,0.0,81,0.00,CLR,OVC,0.00,WeatherDisplay:10.37,2013-01-01 10:38:00,
2013-01-01 04:43:00,-2.0,-6.4,30.20,North,0,0.0,0.0,81,0.00,CLR,OVC,0.00,WeatherDisplay:10.37,2013-01-01 10:43:00,
2013-01-01 04:48:00,-2.0,-6.4,30.20,North,0,0.0,0.0,81,0.00,CLR,OVC,0.00,WeatherDisplay:10.37,2013-01-01 10:48:00,
2013-01-01 04:53:00,-2.0,-6.4,30.20,North,0,0.0,0.0,81,0.00,CLR,OVC,0.00,WeatherDisplay:10.37,2013-01-01 10:53:00,
2013-01-01 04:58:00,-2.2,-6.6,30.20,North,0,0.0,0.0,81,0.00,CLR,OVC,0.00,WeatherDisplay:10.37,2013-01-01 10:58:00,
2013-01-01 05:03:00,-2.2,-6.6,30.20,North,0,0.0,0.0,81,0.00,CLR,OVC,0.00,WeatherDisplay:10.37,2013-01-01 11:03:00,
2013-01-01 05:08:00,-2.4,-6.8,30.20,North,0,0.0,0.0,81,0.00,CLR,OVC,0.00,WeatherDisplay:10.37,2013-01-01 11:08:00,
2013-01-01 05:13:00,-2.4,-6.8,30.21,North,0,0.0,0.0,81,0.00,CLR,OVC,0.00,WeatherDisplay:10.37,2013-01-01 11:13:00,
2013-01-01 05:18:00,-2.4,-6.8,30.20,North,0,0.0,0.0,81,0.00,CLR,OVC,0.00,WeatherDisplay:10.37,2013-01-01 11:18:00,
2013-01-01 05:23:00,-2.4,-6.8,30.21,North,0,0.0,0.0,81,0.00,CLR,OVC,0.00,WeatherDisplay:10.37,2013-01-01 11:23:00,
2013-01-01 05:28:00,-2.4,-6.8,30.21,North,0,0.0,0.0,81,0.00,CLR,OVC,0.00,WeatherDisplay:10.37,2013-01-01 11:28:00,
2013-01-01 05:33:00,-2.2,-6.6,30.20,North,0,0.0,0.0,81,0.00,CLR,OVC,0.00,WeatherDisplay:10.37,2013-01-01 11:33:00,
2013-01-01 05:38:00,-2.4,-6.8,30.20,North,0,0.0,0.0,81,0.00,CLR,OVC,0.00,WeatherDisplay:10.37,2013-01-01 11:38:00,
2013-01-01 05:43:00,-2.6,-7.0,30.20,North,0,0.0,0.0,81,0.00,CLR,OVC,0.00,WeatherDisplay:10.37,2013-01-01 11:43:00,
2013-01-01 05:48:00,-2.6,-7.0,30.20,North,0,0.0,0.0,81,0.00,CLR,OVC,0.00,WeatherDisplay:10.37,2013-01-01 11:48:00,
2013-01-01 05:53:00,-2.6,-7.0,30.20,North,0,0.0,0.0,81,0.00,CLR,OVC,0.00,WeatherDisplay:10.37,2013-01-01 11:53:00,
2013-01-01 05:58:00,-2.4,-6.8,30.21,North,0,0.0,0.0,81,0.00,CLR,OVC,0.00,WeatherDisplay:10.37,2013-01-01 11:58:00,
2013-01-01 06:03:00,-2.4,-6.8,30.21,North,0,0.0,0.0,81,0.00,CLR,OVC,0.00,WeatherDisplay:10.37,2013-01-01 12:03:00,
2013-01-01 06:08:00,-2.6,-7.0,30.21,North,0,0.0,0.0,81,0.00,CLR,OVC,0.00,WeatherDisplay:10.37,2013-01-01 12:08:00,
2013-01-01 06:13:00,-2.7,-7.1,30.21,North,0,0.0,0.0,81,0.00,CLR,OVC,0.00,WeatherDisplay:10.37,2013-01-01 12:13:00,
2013-01-01 06:19:00,-2.9,-7.3,30.22,North,0,0.0,0.0,81,0.00,CLR,OVC,0.00,WeatherDisplay:10.37,2013-01-01 12:19:00,
2013-01-01 06:24:00,-2.9,-7.3,30.22,North,0,0.0,0.0,81,0.00,CLR,OVC,0.00,WeatherDisplay:10.37,2013-01-01 12:24:00,
2013-01-01 06:29:00,-2.7,-7.1,30.22,North,0,0.0,0.0,81,0.00,CLR,OVC,0.00,WeatherDisplay:10.37,2013-01-01 12:29:00,
2013-01-01 06:34:00,-2.6,-7.0,30.21,North,0,0.0,0.0,81,0.00,CLR,OVC,0.00,WeatherDisplay:10.37,2013-01-01 12:34:00,
2013-01-01 06:39:00,-2.6,-7.0,30.21,North,0,0.0,0.0,81,0.00,CLR,OVC,0.00,WeatherDisplay:10.37,2013-01-01 12:39:00,
2013-01-01 06:44:00,-2.6,-7.0,30.21,North,0,0.0,0.0,81,0.00,CLR,OVC,0.00,WeatherDisplay:10.37,2013-01-01 12:44:00,
2013-01-01 06:49:00,-2.6,-7.0,30.21,North,0,0.0,0.0,81,0.00,CLR,OVC,0.00,WeatherDisplay:10.37,2013-01-01 12:49:00,
2013-01-01 06:54:00,-2.0,-6.4,30.21,North,0,0.0,0.0,81,0.00,CLR,OVC,0.00,WeatherDisplay:10.37,2013-01-01 12:54:00,
2013-01-01 06:59:00,-2.0,-6.4,30.21,North,0,0.0,0.0,81,0.00,CLR,OVC,0.00,WeatherDisplay:10.37,2013-01-01 12:59:00,
2013-01-01 07:04:00,-2.0,-6.4,30.21,North,0,0.0,0.0,81,0.00,CLR,OVC,0.00,WeatherDisplay:10.37,2013-01-01 13:04:00,
2013-01-01 07:09:00,-1.8,-6.2,30.22,North,0,0.0,0.0,81,0.00,CLR,OVC,0.00,WeatherDisplay:10.37,2013-01-01 13:09:00,
2013-01-01 07:14:00,-1.8,-6.2,30.21,North,0,0.0,0.0,81,0.00,CLR,OVC,0.00,WeatherDisplay:10.37,2013-01-01 13:14:00,
2013-01-01 07:19:00,-2.2,-6.6,30.21,North,0,0.0,0.0,81,0.00,CLR,OVC,0.00,WeatherDisplay:10.37,2013-01-01 13:19:00,
2013-01-01 07:24:00,-2.4,-6.8,30.21,North,0,0.0,0.0,81,0.00,CLR,OVC,0.00,WeatherDisplay:10.37,2013-01-01 13:24:00,
2013-01-01 07:29:00,-2.4,-6.8,30.21,North,0,0.0,0.0,81,0.00,CLR,OVC,0.00,WeatherDisplay:10.37,2013-01-01 13:29:00,
2013-01-01 07:34:00,-2.2,-6.6,30.22,North,0,0.0,0.0,81,0.00,CLR,OVC,0.00,WeatherDisplay:10.37,2013-01-01 13:34:00,
2013-01-01 07:39:00,-2.0,-6.4,30.22,North,0,0.0,0.0,81,0.00,CLR,OVC,0.00,WeatherDisplay:10.37,2013-01-01 13:39:00,
2013-01-01 07:44:00,-2.0,-6.4,30.22,North,0,0.0,0.0,81,0.00,CLR,OVC,0.00,WeatherDisplay:10.37,2013-01-01 13:44:00,
2013-01-01 07:49:00,-2.0,-6.4,30.22,North,0,0.0,0.0,81,0.00,CLR,OVC,0.00,WeatherDisplay:10.37,2013-01-01 13:49:00,
2013-01-01 07:54:00,-2.2,-6.6,30.22,North,0,0.0,0.0,81,0.00,CLR,OVC,0.00,WeatherDisplay:10.37,2013-01-01 13:54:00,
2013-01-01 07:59:00,-2.4,-6.8,30.21,North,0,0.0,0.0,81,0.00,CLR,OVC,0.00,WeatherDisplay:10.37,2013-01-01 13:59:00,
2013-01-01 08:04:00,-2.4,-6.8,30.22,North,0,0.0,0.0,81,0.00,CLR,OVC,0.00,WeatherDisplay:10.37,2013-01-01 14:04:00,
2013-01-01 08:09:00,-1.8,-6.2,30.22,North,0,0.0,0.0,81,0.00,CLR,OVC,0.00,WeatherDisplay:10.37,2013-01-01 14:09:00,
2013-01-01 08:14:00,-1.7,-6.1,30.21,North,0,0.0,0.0,81,0.00,CLR,OVC,0.00,WeatherDisplay:10.37,2013-01-01 14:14:00,
2013-01-01 08:19:00,-1.5,-5.9,30.22,North,0,0.0,0.0,81,0.00,CLR,OVC,0.00,WeatherDisplay:10.37,2013-01-01 14:19:00,
2013-01-01 08:24:00,-1.3,-5.7,30.22,North,0,0.0,0.0,81,0.00,CLR,OVC,0.00,WeatherDisplay:10.37,2013-01-01 14:24:00,
2013-01-01 08:29:00,-1.3,-5.7,30.22,North,0,0.0,0.0,81,0.00,CLR,OVC,0.00,WeatherDisplay:10.37,2013-01-01 14:29:00,
2013-01-01 08:34:00,-1.1,-5.5,30.22,North,0,0.0,0.0,81,0.00,CLR,OVC,0.00,WeatherDisplay:10.37,2013-01-01 14:34:00,
2013-01-01 08:39:00,-0.9,-5.6,30.22,North,0,0.0,0.0,80,0.00,CLR,OVC,0.00,WeatherDisplay:10.37,2013-01-01 14:39:00,
2013-01-01 08:44:00,-1.1,-5.8,30.22,North,0,0.0,0.0,80,0.00,CLR,OVC,0.00,WeatherDisplay:10.37,2013-01-01 14:44:00,
2013-01-01 08:49:00,-1.1,-5.5,30.21,North,0,0.0,0.0,81,0.00,CLR,OVC,0.00,WeatherDisplay:10.37,2013-01-01 14:49:00,
2013-01-01 08:54:00,-1.1,-5.5,30.21,North,0,0.0,0.0,81,0.00,CLR,OVC,0.00,WeatherDisplay:10.37,2013-01-01 14:54:00,
2013-01-01 08:59:00,-0.6,-5.0,30.21,North,0,0.0,0.0,81,0.00,CLR,OVC,0.00,WeatherDisplay:10.37,2013-01-01 14:59:00,
2013-01-01 09:04:00,-0.4,-4.8,30.22,North,0,0.0,0.0,81,0.00,CLR,OVC,0.00,WeatherDisplay:10.37,2013-01-01 15:04:00,
2013-01-01 09:09:00,-0.2,-4.7,30.22,North,0,0.0,0.0,81,0.00,CLR,OVC,0.00,WeatherDisplay:10.37,2013-01-01 15:09:00,
2013-01-01 09:14:00,0.1,-4.3,30.22,North,0,0.0,0.0,81,0.00,CLR,OVC,0.00,WeatherDisplay:10.37,2013-01-01 15:14:00,
2013-01-01 09:19:00,0.3,-4.1,30.22,North,0,0.0,0.0,81,0.00,CLR,OVC,0.00,WeatherDisplay:10.37,2013-01-01 15:19:00,
2013-01-01 09:24:00,0.7,-4.0,30.22,North,0,0.0,0.0,80,0.00,CLR,OVC,0.00,WeatherDisplay:10.37,2013-01-01 15:24:00,
2013-01-01 09:29:00,0.9,-3.9,30.22,North,0,0.0,0.0,80,0.00,CLR,OVC,0.00,WeatherDisplay:10.37,2013-01-01 15:29:00,
2013-01-01 09:34:00,1.0,-3.7,30.22,North,0,0.0,0.0,80,0.00,CLR,OVC,0.00,WeatherDisplay:10.37,2013-01-01 15:34:00,
2013-01-01 09:39:00,1.0,-3.7,30.22,North,0,0.0,0.0,80,0.00,CLR,OVC,0.00,WeatherDisplay:10.37,2013-01-01 15:39:00,
2013-01-01 09:44:00,1.4,-3.3,30.22,North,0,0.0,0.0,80,0.00,CLR,OVC,0.00,WeatherDisplay:10.37,2013-01-01 15:44:00,
2013-01-01 09:49:00,1.8,-3.0,30.22,North,0,0.0,0.0,80,0.00,CLR,OVC,0.00,WeatherDisplay:10.37,2013-01-01 15:49:00,
2013-01-01 09:54:00,1.8,-3.3,30.22,North,0,0.0,0.0,79,0.00,CLR,OVC,0.00,WeatherDisplay:10.37,2013-01-01 15:54:00,
2013-01-01 09:59:00,1.9,-3.1,30.22,North,0,0.0,0.0,79,0.00,CLR,OVC,0.00,WeatherDisplay:10.37,2013-01-01 15:59:00,
2013-01-01 10:04:00,2.5,-2.5,30.22,North,0,0.0,0.0,79,0.00,CLR,OVC,0.00,WeatherDisplay:10.37,2013-01-01 16:04:00,
2013-01-01 10:09:00,2.8,-1.9,30.22,North,0,0.0,0.0,80,0.00,CLR,OVC,0.00,WeatherDisplay:10.37,2013-01-01 16:09:00,
2013-01-01 10:14:00,3.4,-1.4,30.22,North,0,0.0,0.0,80,0.00,CLR,OVC,0.00,WeatherDisplay:10.37,2013-01-01 16:14:00,
2013-01-01 10:19:00,4.3,-0.5,30.23,North,0,0.0,0.0,80,0.00,CLR,OVC,0.00,WeatherDisplay:10.37,2013-01-01 16:19:00,
2013-01-01 10:24:00,5.5,0.7,30.22,North,0,0.0,0.0,80,0.00,CLR,OVC,0.00,WeatherDisplay:10.37,2013-01-01 16:24:00,
2013-01-01 10:29:00,5.9,0.8,30.22,North,0,0.0,0.0,79,0.00,CLR,OVC,0.00,WeatherDisplay:10.37,2013-01-01 16:29:00,
2013-01-01 10:34:00,6.3,0.9,30.22,North,0,0.0,0.0,78,0.00,CLR,OVC,0.00,WeatherDisplay:10.37,2013-01-01 16:34:00,
2013-01-01 10:39:00,6.6,1.2,30.22,North,0,0.0,0.0,78,0.00,CLR,OVC,0.00,WeatherDisplay:10.37,2013-01-01 16:39:00,
2013-01-01 10:44:00,6.8,1.1,30.22,North,0,0.0,0.0,77,0.00,CLR,OVC,0.00,WeatherDisplay:10.37,2013-01-01 16:44:00,
2013-01-01 10:49:00,7.3,1.6,30.22,North,0,0.0,0.0,77,0.00,CLR,OVC,0.00,WeatherDisplay:10.37,2013-01-01 16:49:00,
2013-01-01 10:54:00,7.5,2.1,30.22,North,0,0.0,0.0,78,0.00,CLR,OVC,0.00,WeatherDisplay:10.37,2013-01-01 16:54:00,
2013-01-01 10:59:00,7.9,2.2,30.22,North,0,0.0,0.0,77,0.00,CLR,OVC,0.00,WeatherDisplay:10.37,2013-01-01 16:59:00,
2013-01-01 11:04:00,8.2,2.5,30.22,North,0,0.0,0.0,77,0.00,CLR,OVC,0.00,WeatherDisplay:10.37,2013-01-01 17:04:00,
2013-01-01 11:09:00,8.8,3.0,30.22,North,0,0.0,0.0,77,0.00,CLR,OVC,0.00,WeatherDisplay:10.37,2013-01-01 17:09:00,
2013-01-01 11:15:00,9.3,3.6,30.22,North,0,0.0,0.0,77,0.00,CLR,OVC,0.00,WeatherDisplay:10.37,2013-01-01 17:15:00,
2013-01-01 11:20:00,10.0,4.3,30.22,North,0,0.0,0.0,77,0.00,CLR,OVC,0.00,WeatherDisplay:10.37,2013-01-01 17:20:00,
2013-01-01 11:25:00,10.6,4.8,30.22,North,0,0.0,0.0,77,0.00,CLR,OVC,0.00,WeatherDisplay:10.37,2013-01-01 17:25:00,
2013-01-01 11:30:00,11.5,5.4,30.22,North,0,0.0,0.0,76,0.00,CLR,OVC,0.00,WeatherDisplay:10.37,2013-01-01 17:30:00,
2013-01-01 11:35:00,12.2,5.8,30.22,North,0,0.0,0.0,75,0.00,CLR,OVC,0.00,WeatherDisplay:10.37,2013-01-01 17:35:00,
2013-01-01 11:40:00,12.4,5.7,30.22,North,0,0.0,0.0,74,0.00,CLR,OVC,0.00,WeatherDisplay:10.37,2013-01-01 17:40:00,
2013-01-01 11:45:00,12.4,5.4,30.22,North,0,0.0,0.0,73,0.00,CLR,OVC,0.00,WeatherDisplay:10.37,2013-01-01 17:45:00,
2013-01-01 11:50:00,12.0,4.7,30.21,North,0,0.0,0.0,72,0.00,CLR,OVC,0.00,WeatherDisplay:10.37,2013-01-01 17:50:00,
2013-01-01 11:55:00,12.2,5.2,30.22,North,0,0.0,0.0,73,0.00,CLR,OVC,0.00,WeatherDisplay:10.37,2013-01-01 17:55:00,
2013-01-01 12:00:00,12.4,5.7,30.21,North,0,0.0,0.0,74,0.00,CLR,OVC,0.00,WeatherDisplay:10.37,2013-01-01 18:00:00,
2013-01-01 12:05:00,12.4,5.7,30.21,North,0,0.0,0.0,74,0.00,CLR,OVC,0.00,WeatherDisplay:10.37,2013-01-01 18:05:00,
2013-01-01 12:10:00,12.4,5.7,30.20,North,0,0.0,0.0,74,0.00,CLR,OVC,0.00,WeatherDisplay:10.37,2013-01-01 18:10:00,
2013-01-01 12:15:00,12.4,5.4,30.20,North,0,0.0,0.0,73,0.00,CLR,OVC,0.00,WeatherDisplay:10.37,2013-01-01 18:15:00,
2013-01-01 12:20:00,12.6,5.5,30.20,North,0,0.0,0.0,73,0.00,CLR,OVC,0.00,WeatherDisplay:10.37,2013-01-01 18:20:00,
2013-01-01 12:25:00,12.9,5.9,30.20,North,0,0.0,0.0,73,0.00,CLR,OVC,0.00,WeatherDisplay:10.37,2013-01-01 18:25:00,
2013-01-01 12:30:00,12.9,5.9,30.20,North,0,0.0,0.0,73,0.00,CLR,OVC,0.00,WeatherDisplay:10.37,2013-01-01 18:30:00,
2013-01-01 12:35:00,13.1,6.1,30.20,North,0,0.0,0.0,73,0.00,CLR,OVC,0.00,WeatherDisplay:10.37,2013-01-01 18:35:00,
2013-01-01 12:40:00,13.3,6.5,30.20,North,0,0.0,0.0,74,0.00,CLR,OVC,0.00,WeatherDisplay:10.37,2013-01-01 18:40:00,
2013-01-01 12:45:00,13.3,5.9,30.20,North,0,0.0,0.0,72,0.00,CLR,OVC,0.00,WeatherDisplay:10.37,2013-01-01 18:45:00,
2013-01-01 12:50:00,13.6,6.3,30.20,North,0,0.0,0.0,72,0.00,CLR,OVC,0.00,WeatherDisplay:10.37,2013-01-01 18:50:00,
2013-01-01 12:55:00,13.8,6.5,30.19,North,0,0.0,0.0,72,0.00,CLR,OVC,0.00,WeatherDisplay:10.37,2013-01-01 18:55:00,
2013-01-01 13:00:00,14.0,6.3,30.19,North,0,0.0,0.0,71,0.00,CLR,OVC,0.00,WeatherDisplay:10.37,2013-01-01 19:00:00,
2013-01-01 13:05:00,14.2,6.2,30.19,North,0,0.0,0.0,70,0.00,CLR,OVC,0.00,WeatherDisplay:10.37,2013-01-01 19:05:00,
2013-01-01 13:10:00,14.4,5.7,30.19,North,0,0.0,0.0,68,0.00,CLR,OVC,0.00,WeatherDisplay:10.37,2013-01-01 19:10:00,
2013-01-01 13:15:00,14.4,5.4,30.19,North,0,0.0,0.0,67,0.00,CLR,OVC,0.00,WeatherDisplay:10.37,2013-01-01 19:15:00,
2013-01-01 13:20:00,14.2,5.2,30.19,North,0,0.0,0.0,67,0.00,CLR,OVC,0.00,WeatherDisplay:10.37,2013-01-01 19:20:00,
2013-01-01 13:25:00,14.0,5.1,30.18,North,0,0.0,0.0,67,0.00,CLR,OVC,0.00,WeatherDisplay:10.37,2013-01-01 19:25:00,
2013-01-01 13:30:00,14.2,5.2,30.18,North,0,0.0,0.0,67,0.00,CLR,OVC,0.00,WeatherDisplay:10.37,2013-01-01 19:30:00,
2013-01-01 13:35:00,14.2,5.5,30.18,North,0,0.0,0.0,68,0.00,CLR,OVC,0.00,WeatherDisplay:10.37,2013-01-01 19:35:00,
2013-01-01 13:40:00,14.4,5.7,30.18,North,0,0.0,0.0,68,0.00,CLR,OVC,0.00,WeatherDisplay:10.37,2013-01-01 19:40:00,
2013-01-01 13:45:00,14.2,5.5,30.18,North,0,0.0,0.0,68,0.00,CLR,OVC,0.00,WeatherDisplay:10.37,2013-01-01 19:45:00,
2013-01-01 13:50:00,14.0,5.4,30.18,North,0,0.0,0.0,68,0.00,CLR,OVC,0.00,WeatherDisplay:10.37,2013-01-01 19:50:00,
2013-01-01 13:55:00,13.8,5.5,30.18,North,0,0.0,0.0,69,0.00,CLR,OVC,0.00,WeatherDisplay:10.37,2013-01-01 19:55:00,
2013-01-01 14:00:00,13.6,5.0,30.18,North,0,0.0,0.0,68,0.00,CLR,OVC,0.00,WeatherDisplay:10.37,2013-01-01 20:00:00,
2013-01-01 14:05:00,13.3,5.3,30.17,North,0,0.0,0.0,70,0.00,CLR,OVC,0.00,WeatherDisplay:10.37,2013-01-01 20:05:00,
2013-01-01 14:10:00,13.3,5.6,30.17,North,0,0.0,0.0,71,0.00,CLR,OVC,0.00,WeatherDisplay:10.37,2013-01-01 20:10:00,
2013-01-01 14:15:00,13.3,5.6,30.16,North,0,0.0,0.0,71,0.00,CLR,OVC,0.00,WeatherDisplay:10.37,2013-01-01 20:15:00,
2013-01-01 14:20:00,12.9,5.3,30.16,North,0,0.0,0.0,71,0.00,CLR,OVC,0.00,WeatherDisplay:10.37,2013-01-01 20:20:00,
2013-01-01 14:25:00,13.1,5.5,30.17,North,0,0.0,0.0,71,0.00,CLR,OVC,0.00,WeatherDisplay:10.37,2013-01-01 20:25:00,
2013-01-01 14:30:00,13.1,5.8,30.17,North,0,0.0,0.0,72,0.00,CLR,OVC,0.00,WeatherDisplay:10.37,2013-01-01 20:30:00,
2013-01-01 14:35:00,13.3,5.9,30.17,North,0,0.0,0.0,72,0.00,CLR,OVC,0.00,WeatherDisplay:10.37,2013-01-01 20:35:00,
2013-01-01 14:40:00,13.3,5.9,30.16,North,0,0.0,0.0,72,0.00,CLR,OVC,0.00,WeatherDisplay:10.37,2013-01-01 20:40:00,
2013-01-01 14:45:00,13.3,5.9,30.16,North,0,0.0,0.0,72,0.00,CLR,OVC,0.00,WeatherDisplay:10.37,2013-01-01 20:45:00,
2013-01-01 14:50:00,13.3,6.2,30.16,North,0,0.0,0.0,73,0.00,CLR,OVC,0.00,WeatherDisplay:10.37,2013-01-01 20:50:00,
2013-01-01 14:55:00,13.5,6.4,30.17,North,0,0.0,0.0,73,0.00,CLR,OVC,0.00,WeatherDisplay:10.37,2013-01-01 20:55:00,
2013-01-01 15:00:00,13.5,6.4,30.16,North,0,0.0,0.0,73,0.00,CLR,OVC,0.00,WeatherDisplay:10.37,2013-01-01 21:00:00,
2013-01-01 15:05:00,13.3,5.9,30.16,North,0,0.0,0.0,72,0.00,CLR,OVC,0.00,WeatherDisplay:10.37,2013-01-01 21:05:00,
2013-01-01 15:10:00,13.1,6.1,30.16,North,0,0.0,0.0,73,0.00,CLR,OVC,0.00,WeatherDisplay:10.37,2013-01-01 21:10:00,
2013-01-01 15:15:00,13.3,5.9,30.17,North,0,0.0,0.0,72,0.00,CLR,OVC,0.00,WeatherDisplay:10.37,2013-01-01 21:15:00,
2013-01-01 15:20:00,13.3,5.9,30.17,North,0,0.0,0.0,72,0.00,CLR,OVC,0.00,WeatherDisplay:10.37,2013-01-01 21:20:00,
2013-01-01 15:25:00,12.9,5.6,30.17,North,0,0.0,0.0,72,0.00,CLR,OVC,0.00,WeatherDisplay:10.37,2013-01-01 21:25:00,
2013-01-01 15:30:00,12.7,5.4,30.17,North,0,0.0,0.0,72,0.00,CLR,OVC,0.00,WeatherDisplay:10.37,2013-01-01 21:30:00,
2013-01-01 15:35:00,12.6,5.5,30.17,North,0,0.0,0.0,73,0.00,CLR,OVC,0.00,WeatherDisplay:10.37,2013-01-01 21:35:00,
2013-01-01 15:40:00,12.6,5.5,30.17,North,0,0.0,0.0,73,0.00,CLR,OVC,0.00,WeatherDisplay:10.37,2013-01-01 21:40:00,
2013-01-01 15:45:00,12.6,5.5,30.17,North,0,0.0,0.0,73,0.00,CLR,OVC,0.00,WeatherDisplay:10.37,2013-01-01 21:45:00,
2013-01-01 15:50:00,12.6,5.5,30.16,North,0,0.0,0.0,73,0.00,CLR,OVC,0.00,WeatherDisplay:10.37,2013-01-01 21:50:00,
2013-01-01 15:55:00,12.6,5.8,30.16,North,0,0.0,0.0,74,0.00,CLR,OVC,0.00,WeatherDisplay:10.37,2013-01-01 21:55:00,
2013-01-01 16:00:00,12.6,5.8,30.16,North,0,0.0,0.0,74,0.00,CLR,OVC,0.00,WeatherDisplay:10.37,2013-01-01 22:00:00,
2013-01-01 16:05:00,12.6,5.5,30.16,North,0,0.0,0.0,73,0.00,CLR,OVC,0.00,WeatherDisplay:10.37,2013-01-01 22:05:00,
2013-01-01 16:10:00,12.6,5.8,30.16,North,0,0.0,0.0,74,0.00,CLR,OVC,0.00,WeatherDisplay:10.37,2013-01-01 22:10:00,
2013-01-01 16:15:00,12.6,5.8,30.16,North,0,0.0,0.0,74,0.00,CLR,OVC,0.00,WeatherDisplay:10.37,2013-01-01 22:15:00,
2013-01-01 16:20:00,12.6,5.8,30.16,North,0,0.0,0.0,74,0.00,CLR,OVC,0.00,WeatherDisplay:10.37,2013-01-01 22:20:00,
2013-01-01 16:25:00,12.6,5.8,30.16,North,0,0.0,0.0,74,0.00,CLR,OVC,0.00,WeatherDisplay:10.37,2013-01-01 22:25:00,
2013-01-01 16:30:00,12.6,5.8,30.16,North,0,0.0,0.0,74,0.00,CLR,OVC,0.00,WeatherDisplay:10.37,2013-01-01 22:30:00,
2013-01-01 16:35:00,12.6,6.1,30.16,North,0,0.0,0.0,75,0.00,CLR,OVC,0.00,WeatherDisplay:10.37,2013-01-01 22:35:00,
2013-01-01 16:40:00,12.6,6.1,30.16,North,0,0.0,0.0,75,0.00,CLR,OVC,0.00,WeatherDisplay:10.37,2013-01-01 22:40:00,
2013-01-01 16:46:00,12.6,6.1,30.16,North,0,0.0,0.0,75,0.00,CLR,OVC,0.00,WeatherDisplay:10.37,2013-01-01 22:46:00,
2013-01-01 16:51:00,12.6,6.1,30.16,North,0,0.0,0.0,75,0.00,CLR,OVC,0.00,WeatherDisplay:10.37,2013-01-01 22:51:00,
2013-01-01 16:56:00,12.7,6.6,30.15,North,0,0.0,0.0,76,0.00,CLR,OVC,0.00,WeatherDisplay:10.37,2013-01-01 22:56:00,
2013-01-01 17:01:00,12.7,6.6,30.15,North,0,0.0,0.0,76,0.00,CLR,OVC,0.00,WeatherDisplay:10.37,2013-01-01 23:01:00,
2013-01-01 17:06:00,12.7,6.6,30.15,North,0,0.0,0.0,76,0.00,CLR,OVC,0.00,WeatherDisplay:10.37,2013-01-01 23:06:00,
2013-01-01 17:11:00,12.9,6.8,30.15,North,0,0.0,0.0,76,0.00,CLR,OVC,0.00,WeatherDisplay:10.37,2013-01-01 23:11:00,
2013-01-01 17:16:00,12.9,6.8,30.15,North,0,0.0,0.0,76,0.00,CLR,OVC,0.00,WeatherDisplay:10.37,2013-01-01 23:16:00,
2013-01-01 17:21:00,12.9,6.8,30.15,North,0,0.0,0.0,76,0.00,CLR,OVC,0.00,WeatherDisplay:10.37,2013-01-01 23:21:00,
2013-01-01 17:26:00,12.9,7.1,30.15,North,0,0.0,0.0,77,0.00,CLR,OVC,0.00,WeatherDisplay:10.37,2013-01-01 23:26:00,
2013-01-01 17:31:00,13.1,7.0,30.15,North,0,0.0,0.0,76,0.00,CLR,OVC,0.00,WeatherDisplay:10.37,2013-01-01 23:31:00,
2013-01-01 17:36:00,13.1,7.2,30.15,North,0,0.0,0.0,77,0.00,CLR,OVC,0.00,WeatherDisplay:10.37,2013-01-01 23:36:00,
2013-01-01 17:41:00,13.3,7.4,30.15,North,0,0.0,0.0,77,0.00,CLR,OVC,0.00,WeatherDisplay:10.37,2013-01-01 23:41:00,
2013-01-01 17:46:00,13.3,7.4,30.15,North,0,0.0,0.0,77,0.00,CLR,OVC,0.00,WeatherDisplay:10.37,2013-01-01 23:46:00,
2013-01-01 17:51:00,13.3,7.4,30.15,North,0,0.0,0.0,77,0.00,CLR,OVC,0.00,WeatherDisplay:10.37,2013-01-01 23:51:00,
2013-01-01 17:56:00,13.5,7.6,30.15,North,0,0.0,0.0,77,0.00,CLR,OVC,0.00,WeatherDisplay:10.37,2013-01-01 23:56:00,
2013-01-01 18:01:00,13.5,7.6,30.15,North,0,0.0,0.0,77,0.00,CLR,OVC,0.00,WeatherDisplay:10.37,2013-01-02 00:01:00,
2013-01-01 18:06:00,13.6,7.8,30.15,North,0,0.0,0.0,77,0.00,CLR,OVC,0.00,WeatherDisplay:10.37,2013-01-02 00:06:00,
2013-01-01 18:11:00,13.6,7.8,30.15,North,0,0.0,0.0,77,0.00,CLR,OVC,0.00,WeatherDisplay:10.37,2013-01-02 00:11:00,
2013-01-01 18:16:00,13.6,7.8,30.15,North,0,0.0,0.0,77,0.00,CLR,OVC,0.00,WeatherDisplay:10.37,2013-01-02 00:16:00,
2013-01-01 18:21:00,13.8,7.9,30.15,North,0,0.0,0.0,77,0.00,CLR,OVC,0.00,WeatherDisplay:10.37,2013-01-02 00:21:00,
2013-01-01 18:26:00,13.8,7.9,30.15,North,0,0.0,0.0,77,0.00,CLR,OVC,0.00,WeatherDisplay:10.37,2013-01-02 00:26:00,
2013-01-01 18:31:00,13.8,7.9,30.15,North,0,0.0,0.0,77,0.00,CLR,OVC,0.00,WeatherDisplay:10.37,2013-01-02 00:31:00,
2013-01-01 18:36:00,13.8,7.9,30.15,North,0,0.0,0.0,77,0.00,CLR,OVC,0.00,WeatherDisplay:10.37,2013-01-02 00:36:00,
2013-01-01 18:41:00,13.8,7.9,30.15,North,0,0.0,0.0,77,0.00,CLR,OVC,0.00,WeatherDisplay:10.37,2013-01-02 00:41:00,
2013-01-01 18:46:00,13.8,7.9,30.14,North,0,0.0,0.0,77,0.00,CLR,OVC,0.00,WeatherDisplay:10.37,2013-01-02 00:46:00,
2013-01-01 18:51:00,13.8,7.9,30.14,North,0,0.0,0.0,77,0.00,CLR,OVC,0.00,WeatherDisplay:10.37,2013-01-02 00:51:00,
2013-01-01 18:56:00,13.8,7.9,30.14,North,0,0.0,0.0,77,0.00,CLR,OVC,0.00,WeatherDisplay:10.37,2013-01-02 00:56:00,
2013-01-01 19:01:00,13.8,7.9,30.14,North,0,0.0,0.0,77,0.00,CLR,OVC,0.00,WeatherDisplay:10.37,2013-01-02 01:01:00,
2013-01-01 19:06:00,13.8,7.9,30.14,North,0,0.0,0.0,77,0.00,CLR,OVC,0.00,WeatherDisplay:10.37,2013-01-02 01:06:00,
2013-01-01 19:11:00,13.8,7.9,30.14,North,0,0.0,0.0,77,0.00,CLR,OVC,0.00,WeatherDisplay:10.37,2013-01-02 01:11:00,
2013-01-01 19:16:00,13.8,7.9,30.14,North,0,0.0,0.0,77,0.00,CLR,OVC,0.00,WeatherDisplay:10.37,2013-01-02 01:16:00,
2013-01-01 19:21:00,13.8,7.9,30.14,North,0,0.0,0.0,77,0.00,CLR,OVC,0.00,WeatherDisplay:10.37,2013-01-02 01:21:00,
2013-01-01 19:26:00,13.8,7.9,30.13,North,0,0.0,0.0,77,0.00,CLR,OVC,0.00,WeatherDisplay:10.37,2013-01-02 01:26:00,
2013-01-01 19:31:00,13.8,7.9,30.14,North,0,0.0,0.0,77,0.00,CLR,OVC,0.00,WeatherDisplay:10.37,2013-01-02 01:31:00,
2013-01-01 19:36:00,13.6,7.8,30.13,North,0,0.0,0.0,77,0.00,CLR,OVC,0.00,WeatherDisplay:10.37,2013-01-02 01:36:00,
2013-01-01 19:41:00,13.6,7.8,30.14,North,0,0.0,0.0,77,0.00,CLR,OVC,0.00,WeatherDisplay:10.37,2013-01-02 01:41:00,
2013-01-01 19:46:00,13.6,7.8,30.14,North,0,0.0,0.0,77,0.00,CLR,OVC,0.00,WeatherDisplay:10.37,2013-01-02 01:46:00,
2013-01-01 19:51:00,13.6,7.8,30.13,North,0,0.0,0.0,77,0.00,CLR,OVC,0.00,WeatherDisplay:10.37,2013-01-02 01:51:00,
2013-01-01 19:56:00,13.6,7.8,30.13,North,0,0.0,0.0,77,0.00,CLR,OVC,0.00,WeatherDisplay:10.37,2013-01-02 01:56:00,
2013-01-01 20:01:00,13.6,7.8,30.13,North,0,0.0,0.0,77,0.00,CLR,OVC,0.00,WeatherDisplay:10.37,2013-01-02 02:01:00,
2013-01-01 20:06:00,13.6,7.8,30.13,North,0,0.0,0.0,77,0.00,CLR,OVC,0.00,WeatherDisplay:10.37,2013-01-02 02:06:00,
2013-01-01 20:11:00,13.6,7.8,30.13,North,0,0.0,0.0,77,0.00,CLR,OVC,0.00,WeatherDisplay:10.37,2013-01-02 02:11:00,
2013-01-01 20:16:00,13.6,8.1,30.12,North,0,0.0,0.0,78,0.00,CLR,OVC,0.00,WeatherDisplay:10.37,2013-01-02 02:16:00,
2013-01-01 20:21:00,13.8,8.2,30.12,North,0,0.0,0.0,78,0.00,CLR,OVC,0.00,WeatherDisplay:10.37,2013-01-02 02:21:00,
2013-01-01 20:26:00,13.8,8.2,30.12,North,0,0.0,0.0,78,0.00,CLR,OVC,0.00,WeatherDisplay:10.37,2013-01-02 02:26:00,
2013-01-01 20:31:00,13.8,8.2,30.12,North,0,0.0,0.0,78,0.00,CLR,OVC,0.00,WeatherDisplay:10.37,2013-01-02 02:31:00,
2013-01-01 20:36:00,13.8,8.2,30.12,North,0,0.0,0.0,78,0.00,CLR,OVC,0.00,WeatherDisplay:10.37,2013-01-02 02:36:00,
2013-01-01 20:41:00,13.8,8.2,30.12,North,0,0.0,0.0,78,0.00,CLR,OVC,0.00,WeatherDisplay:10.37,2013-01-02 02:41:00,
2013-01-01 20:46:00,13.8,8.2,30.12,North,0,0.0,0.0,78,0.00,CLR,OVC,0.00,WeatherDisplay:10.37,2013-01-02 02:46:00,
2013-01-01 20:51:00,13.8,8.2,30.12,North,0,0.0,0.0,78,0.00,CLR,OVC,0.00,WeatherDisplay:10.37,2013-01-02 02:51:00,
2013-01-01 20:56:00,13.8,8.2,30.12,North,0,0.0,0.0,78,0.00,CLR,OVC,0.00,WeatherDisplay:10.37,2013-01-02 02:56:00,
2013-01-01 21:01:00,14.0,8.4,30.12,North,0,0.0,0.0,78,0.00,CLR,OVC,0.00,WeatherDisplay:10.37,2013-01-02 03:01:00,
2013-01-01 21:06:00,14.0,8.4,30.11,North,0,0.0,0.0,78,0.00,CLR,OVC,0.00,WeatherDisplay:10.37,2013-01-02 03:06:00,
2013-01-01 21:11:00,14.0,8.4,30.11,North,0,0.0,0.0,78,0.00,CLR,OVC,0.00,WeatherDisplay:10.37,2013-01-02 03:11:00,
2013-01-01 21:16:00,14.0,8.4,30.11,North,0,0.0,0.0,78,0.00,CLR,OVC,0.00,WeatherDisplay:10.37,2013-01-02 03:16:00,
2013-01-01 21:21:00,14.0,8.4,30.11,North,0,0.0,0.0,78,0.00,CLR,OVC,0.00,WeatherDisplay:10.37,2013-01-02 03:21:00,
2013-01-01 21:26:00,14.0,8.4,30.11,North,0,0.0,0.0,78,0.00,CLR,OVC,0.00,WeatherDisplay:10.37,2013-01-02 03:26:00,
2013-01-01 21:31:00,14.0,8.4,30.11,North,0,0.0,0.0,78,0.00,CLR,OVC,0.00,WeatherDisplay:10.37,2013-01-02 03:31:00,
2013-01-01 21:36:00,14.0,8.4,30.11,North,0,0.0,0.0,78,0.00,CLR,OVC,0.00,WeatherDisplay:10.37,2013-01-02 03:36:00,
2013-01-01 21:41:00,14.0,8.4,30.11,North,0,0.0,0.0,78,0.00,CLR,OVC,0.00,WeatherDisplay:10.37,2013-01-02 03:41:00,
2013-01-01 21:46:00,14.0,8.1,30.11,North,0,0.0,0.0,77,0.00,CLR,OVC,0.00,WeatherDisplay:10.37,2013-01-02 03:46:00,
2013-01-01 21:51:00,14.0,8.1,30.11,North,0,0.0,0.0,77,0.00,CLR,OVC,0.00,WeatherDisplay:10.37,2013-01-02 03:51:00,
2013-01-01 21:56:00,14.2,8.3,30.11,North,0,0.0,0.0,77,0.00,CLR,OVC,0.00,WeatherDisplay:10.37,2013-01-02 03:56:00,
2013-01-01 22:01:00,14.2,8.3,30.12,North,0,0.0,0.0,77,0.00,CLR,OVC,0.00,WeatherDisplay:10.37,2013-01-02 04:01:00,
2013-01-01 22:06:00,14.2,8.3,30.11,North,0,0.0,0.0,77,0.00,CLR,OVC,0.00,WeatherDisplay:10.37,2013-01-02 04:06:00,
2013-01-01 22:11:00,14.2,8.3,30.11,North,0,0.0,0.0,77,0.00,CLR,OVC,0.00,WeatherDisplay:10.37,2013-01-02 04:11:00,
2013-01-01 22:16:00,14.0,8.1,30.11,North,0,0.0,0.0,77,0.00,CLR,OVC,0.00,WeatherDisplay:10.37,2013-01-02 04:16:00,
2013-01-01 22:21:00,14.0,8.1,30.11,North,0,0.0,0.0,77,0.00,CLR,OVC,0.00,WeatherDisplay:10.37,2013-01-02 04:21:00,
2013-01-01 22:26:00,14.2,8.3,30.11,North,0,0.0,0.0,77,0.00,CLR,OVC,0.00,WeatherDisplay:10.37,2013-01-02 04:26:00,
2013-01-01 22:32:00,14.2,8.3,30.11,North,0,0.0,0.0,77,0.00,CLR,OVC,0.00,WeatherDisplay:10.37,2013-01-02 04:32:00,
2013-01-01 22:37:00,14.0,8.1,30.11,North,0,0.0,0.0,77,0.00,CLR,OVC,0.00,WeatherDisplay:10.37,2013-01-02 04:37:00,
2013-01-01 22:42:00,14.0,8.1,30.11,North,0,0.0,0.0,77,0.00,CLR,OVC,0.00,WeatherDisplay:10.37,2013-01-02 04:42:00,
2013-01-01 22:47:00,14.0,8.1,30.10,North,0,0.0,0.0,77,0.00,CLR,OVC,0.00,WeatherDisplay:10.37,2013-01-02 04:47:00,
2013-01-01 22:52:00,13.8,7.9,30.11,North,0,0.0,0.0,77,0.00,CLR,OVC,0.00,WeatherDisplay:10.37,2013-01-02 04:52:00,
2013-01-01 22:57:00,13.5,7.6,30.10,North,0,0.0,0.0,77,0.00,CLR,OVC,0.00,WeatherDisplay:10.37,2013-01-02 04:57:00,
2013-01-01 23:00:00,13.3,7.7,30.10,North,0,0.0,0.0,78,0.00,CLR,OVC,0.00,WeatherDisplay:10.37,2013-01-02 05:00:00,
2013-01-01 23:01:00,13.1,7.5,30.10,North,0,0.0,0.0,78,0.00,CLR,OVC,0.00,WeatherDisplay:10.37,2013-01-02 05:01:00,
2013-01-01 23:06:00,12.6,7.0,30.10,North,0,0.0,0.0,78,0.00,CLR,OVC,0.00,WeatherDisplay:10.37,2013-01-02 05:06:00,
2013-01-01 23:11:00,12.2,6.7,30.10,North,0,0.0,0.0,78,0.00,CLR,OVC,0.00,WeatherDisplay:10.37,2013-01-02 05:11:00,
2013-01-01 23:16:00,11.8,6.3,30.10,North,0,0.0,0.0,78,0.00,CLR,OVC,0.00,WeatherDisplay:10.37,2013-01-02 05:16:00,
2013-01-01 23:21:00,11.7,6.1,30.10,North,0,0.0,0.0,78,0.00,CLR,OVC,0.00,WeatherDisplay:10.37,2013-01-02 05:21:00,
2013-01-01 23:26:00,11.3,5.8,30.10,North,0,0.0,0.0,78,0.00,CLR,OVC,0.00,WeatherDisplay:10.37,2013-01-02 05:26:00,
2013-01-01 23:32:00,11.1,5.9,30.10,North,0,0.0,0.0,79,0.00,CLR,OVC,0.00,WeatherDisplay:10.37,2013-01-02 05:32:00,
2013-01-01 23:37:00,10.8,5.5,30.09,North,0,0.0,0.0,79,0.00,CLR,OVC,0.00,WeatherDisplay:10.37,2013-01-02 05:37:00,
2013-01-01 23:42:00,10.4,5.2,30.09,North,0,0.0,0.0,79,0.00,CLR,OVC,0.00,WeatherDisplay:10.37,2013-01-02 05:42:00,
2013-01-01 23:47:00,10.4,4.9,30.09,North,0,0.0,0.0,78,0.00,CLR,OVC,0.00,WeatherDisplay:10.37,2013-01-02 05:47:00,
2013-01-01 23:52:00,10.0,4.5,30.09,North,0,0.0,0.0,78,0.00,CLR,OVC,0.00,WeatherDisplay:10.37,2013-01-02 05:52:00,
2013-01-01 23:57:00,9.9,4.4,30.08,North,0,0.0,0.0,78,0.00,CLR,OVC,0.00,WeatherDisplay:10.37,2013-01-02 05:57:00,